Location: Lugrin
(46.4033°N, 6.6674°E)
Time: 01:20:56
(UTC+00:00)

In-Cosmos 22 - Pass Details

Date: 18 September 2020
Orbit: 785 x 876 km, 81.2° (Epoch: 31 October)

Event Time Altitude Azimuth Distance (km) Brightness Sun altitude
Rises 19:08:54 0° 349° (N) 3,288 7.7 -16.1°
Reaches altitude 10° 19:11:16 10° 350° (N) 2,356 6.9 -16.5°
Maximum altitude 19:16:35 85° 78° (ENE) 800 4.0 -17.4°
Enters shadow 19:21:33 12° 169° (SSE) 2,223 6.1 -18.1°
